Weather History for Telfer, WE

Change the Weather History Date:

Wednesday, November 21, 2012

  Actual Average Record
Temperature  
Mean Temperature 90 °F -  
Max Temperature 100 °F - - ()
Min Temperature 81 °F - - ()
Cooling Degree Days 26    
Growing Degree Days 40 (Base 50)    
Moisture  
Dew Point 58 °F    
Average Humidity 30    
Maximum Humidity 51    
Minimum Humidity 11    
Precipitation  
Precipitation 0.00 in - - ()
Sea Level Pressure  
Sea Level Pressure 29.81 in    
Wind  
Wind Speed 12 mph ()    
Max Wind Speed 21 mph    
Max Gust Speed 30 mph    
T = Trace of Precipitation, MM = Missing Value Source: Averaged Metar Reports

Daily Weather History Graph

Daily Weather History Graph

Search for Another Location

Airport:

Trip Planner

Search our weather history database for the weather conditions in past years. The results will help you decide how hot, cold, wet, or windy it might be!

Date:

Astronomy

Nov. 21, 2012 Rise Set
Actual Time 4:59 AM WST 6:14 PM WST
Civil Twilight 4:35 AM WST 6:38 PM WST
Nautical Twilight 4:06 AM WST 7:07 PM WST
Astronomical Twilight 3:37 AM WST 7:36 PM WST
Moon 12:06 PM WST (11/21) 12:00 AM WST (11/21)
Length of Visible Light 14h 02m
Length of Day
13h 14m
First Quarter, 56% of the Moon is Illuminated
Nov 21
First Quarter
Nov 28
Full
Dec 6
Last Quarter
Dec 13
New
Dec 20
First Quarter

Hourly Weather History & Observations

Time (WST) Temp. Heat Index Dew Point Humidity Pressure Visibility Wind Dir Wind Speed Gust Speed Precip Events Conditions
12:00 AM 89 °F - 66 °F 37% 29.70 in - NW 15.0 mph - -  
12:00 AM 89.6 °F 92.2 °F 66.2 °F 46% 29.74 in - NW 15.0 mph - N/A   Unknown
1:00 AM 86.0 °F 88.2 °F 66.2 °F 51% 29.74 in - NNW 10.4 mph - N/A   Unknown
2:00 AM 85 °F - 64 °F 40% 29.70 in - NNW 11.5 mph - -  
2:00 AM 84.2 °F 85.6 °F 64.4 °F 51% 29.77 in - NNW 11.5 mph - N/A   Unknown
3:00 AM 84 °F - 61 °F 36% 29.73 in - North 12.7 mph - -  
4:00 AM 82.4 °F 82.5 °F 59.0 °F 45% 29.83 in - North 15.0 mph - N/A   Unknown
5:00 AM 82 °F - 57 °F 31% 29.78 in - North 16.1 mph - -  
5:00 AM 82.4 °F 82.0 °F 57.2 °F 42% 29.83 in - North 16.1 mph - N/A   Unknown
6:00 AM 84 °F - 53 °F 24% 29.80 in - North 12.7 mph - -  
6:00 AM 84.2 °F 82.8 °F 53.6 °F 35% 29.86 in - North 12.7 mph - N/A   Unknown
7:00 AM 86.0 °F 84.2 °F 53.6 °F 33% 29.86 in - North 15.0 mph - N/A   Unknown
8:00 AM 92 °F - 52 °F 16% 29.81 in - North 13.8 mph - -  
8:00 AM 91.4 °F - 51.8 °F 26% 29.86 in - North 13.8 mph - N/A   Unknown
9:00 AM 97 °F - 48 °F 11% 29.81 in - North 11.5 mph - -  
9:00 AM 96.8 °F - 48.2 °F 19% 29.86 in - North 11.5 mph - N/A   Unknown
10:00 AM 93.2 °F 90.8 °F 53.6 °F 26% 29.89 in - North 20.7 mph - N/A   Unknown
10:22 AM 87.8 °F 87.1 °F 59.0 °F 38% 29.89 in - NE 18.4 mph 29.9 mph N/A   Unknown
11:00 AM 89 °F - 63 °F 32% 29.84 in - NE 19.6 mph - -  
11:00 AM 89.6 °F 90.1 °F 62.6 °F 40% 29.89 in - NE 19.6 mph - N/A   Unknown
12:00 PM 93 °F - 60 °F 23% 29.82 in - NE 17.3 mph - -  
12:00 PM 93.2 °F 92.6 °F 59.0 °F 32% 29.86 in - NE 17.3 mph - N/A   Unknown
12:10 PM 95.0 °F 94.4 °F 59.0 °F 30% 29.86 in - NE 18.4 mph 29.9 mph N/A   Unknown
1:00 PM 98.6 °F 98.5 °F 59.0 °F 27% 29.83 in - ENE 17.3 mph - N/A   Unknown
2:00 PM 97 °F - 56 °F 16% 29.77 in - NE 13.8 mph - -  
2:00 PM 96.8 °F 95.1 °F 55.4 °F 25% 29.83 in - NE 13.8 mph - N/A   Unknown
3:00 PM 98 °F - 58 °F 17% 29.75 in - NE 11.5 mph - -  
3:00 PM 98.6 °F 97.6 °F 57.2 °F 25% 29.80 in - NE 11.5 mph - N/A   Unknown
4:00 PM 100.4 °F 99.7 °F 57.2 °F 24% 29.77 in - NE 9.2 mph - N/A   Unknown
5:00 PM 98 °F - 57 °F 17% 29.73 in - NNE 12.7 mph - -  
5:00 PM 98.6 °F 97.6 °F 57.2 °F 25% 29.77 in - NNE 12.7 mph - N/A   Unknown
6:00 PM 97 °F - 57 °F 18% 29.74 in - NNE 10.4 mph - -  
6:00 PM 96.8 °F 95.8 °F 57.2 °F 27% 29.80 in - NNE 10.4 mph - N/A   Unknown
7:00 PM 95.0 °F 93.7 °F 57.2 °F 28% 29.80 in - North 8.1 mph - N/A   Unknown
8:00 PM 93 °F - 60 °F 23% 29.79 in - NE 8.1 mph - -  
8:00 PM 93.2 °F 92.6 °F 59.0 °F 32% 29.83 in - NE 8.1 mph - N/A   Unknown
9:00 PM 91 °F - 58 °F 23% 29.80 in - NE 8.1 mph - -  
9:00 PM 91.4 °F 89.9 °F 57.2 °F 31% 29.86 in - NE 8.1 mph - N/A   Unknown
10:00 PM 89.6 °F 88.1 °F 57.2 °F 33% 29.86 in - NE 6.9 mph - N/A   Unknown
11:00 PM 87 °F - 57 °F 26% 29.79 in - NNE 4.6 mph - -  
11:00 PM 87.8 °F 86.5 °F 57.2 °F 35% 29.83 in - NNE 4.6 mph - N/A   Unknown